Location: Trebic
(49.2170°N, 15.8830°E)
Time: 01:21:54
(UTC+02:00)

ISS - Pass Details

Date: 02 April 2019
Orbit: 408 x 410 km, 51.6° (Epoch: 19 April)

Event Time Altitude Azimuth Distance (km) Brightness Sun altitude
Rises 22:32:53 0° 285° (WNW) 2,338 0.9 -27.0°
Reaches altitude 10° 22:35:20 10° 268° (W) 1,473 -0.5 -27.3°
Enters shadow 22:35:29 11° 266° (W) 1,426 -0.7 -27.3°
